QPF
0.01 0.01 0.02 0.02 0.03 0.04 0.04 0.05 0.05 0.04 0.03 0.03 0.02 0.02 0.02 0.02 0.02 0.03 0.04 0.04 0.02 0.01 0.01 0.02 0.03 0.02 0.01 0.01 0.01 0.02 0.03 0.05 0.06 0.06 0.04 0.04 0.04 0.04 0.06 0.07 0.07 0.05 0.03
0.03 0.03 0.03 0.03 0.03 0.04 0.04 0.05 0.05 0.04 0.04 0.03 0.02 0.02 0.02 0.02 0.03 0.04 0.04 0.04 0.03 0.02 0.03 0.04 0.03 0.01 0.01 0.01 0.01 0.01 0.02 0.02 0.03 0.04 0.04 0.04 0.03 0.03 0.06 0.08 0.07 0.06 0.04
0.08 0.07 0.06 0.06 0.05 0.04 0.04 0.05 0.06 0.06 0.05 0.04 0.03 0.03 0.03 0.03 0.03 0.04 0.05 0.04 0.04 0.04 0.04 0.04 0.02 0.02 0.01 0.01 0.01 0.02 0.03 0.03 0.03 0.03 0.03 0.03 0.04 0.04 0.05 0.04 0.04 0.04 0.04
0.07 0.07 0.06 0.06 0.07 0.07 0.06 0.05 0.04 0.05 0.04 0.03 0.04 0.05 0.04 0.05 0.04 0.04 0.04 0.05 0.07 0.06 0.05 0.04 0.03 0.03 0.03 0.03 0.02 0.02 0.04 0.03 0.03 0.03 0.03 0.03 0.03 0.04 0.04 0.03 0.03 0.03 0.03
0.05 0.06 0.06 0.07 0.07 0.06 0.06 0.05 0.04 0.04 0.04 0.03 0.04 0.06 0.06 0.07 0.06 0.06 0.05 0.04 0.05 0.06 0.07 0.06 0.04 0.04 0.04 0.04 0.03 0.02 0.02 0.02 0.02 0.03 0.03 0.04 0.04 0.03 0.03 0.03 0.02 0.03 0.03
0.06 0.06 0.05 0.06 0.05 0.05 0.04 0.04 0.04 0.03 0.03 0.02 0.02 0.04 0.06 0.05 0.05 0.05 0.05 0.06 0.05 0.06 0.07 0.08 0.06 0.05 0.05 0.05 0.04 0.04 0.03 0.02 0.02 0.03 0.03 0.03 0.03 0.02 0.02 0.02 0.03 0.03 0.02
0.08 0.07 0.05 0.04 0.04 0.04 0.03 0.03 0.03 0.02 0.02 0.02 0.02 0.02 0.03 0.04 0.05 0.05 0.05 0.06 0.06 0.06 0.08 0.10 0.10 0.09 0.08 0.07 0.07 0.06 0.06 0.06 0.04 0.04 0.03 0.03 0.03 0.03 0.03 0.04 0.03 0.02 0.02
0.07 0.05 0.04 0.03 0.03 0.03 0.03 0.02 0.03 0.03 0.02 0.02 0.02 0.02 0.02 0.03 0.04 0.03 0.04 0.04 0.05 0.06 0.07 0.08 0.09 0.08 0.07 0.07 0.06 0.05 0.06 0.06 0.05 0.03 0.03 0.03 0.03 0.02 0.04 0.05 0.06 0.05 0.04
0.05 0.04 0.03 0.03 0.02 0.03 0.03 0.03 0.03 0.04 0.04 0.03 0.03 0.03 0.03 0.03 0.03 0.03 0.04 0.04 0.04 0.04 0.05 0.05 0.06 0.05 0.05 0.06 0.06 0.06 0.06 0.06 0.06 0.05 0.04 0.03 0.03 0.02 0.04 0.06 0.06 0.07 0.05
0.03 0.03 0.03 0.03 0.03 0.03 0.03 0.03 0.03 0.04 0.04 0.03 0.03 0.03 0.03 0.03 0.03 0.04 0.04 0.04 0.05 0.06 0.07 0.08 0.08 0.06 0.05 0.04 0.04 0.04 0.04 0.05 0.06 0.05 0.04 0.03 0.02 0.02 0.03 0.04 0.04 0.05 0.04
0.02 0.02 0.03 0.04 0.04 0.04 0.03 0.02 0.03 0.03 0.03 0.02 0.02 0.03 0.04 0.04 0.04 0.05 0.06 0.06 0.08 0.08 0.08 0.08 0.07 0.07 0.06 0.05 0.03 0.02 0.02 0.04 0.05 0.05 0.04 0.04 0.03 0.03 0.03 0.03 0.03 0.04 0.03
0.01 0.01 0.02 0.03 0.03 0.02 0.02 0.02 0.03 0.03 0.02 0.02 0.02 0.02 0.03 0.04 0.03 0.03 0.05 0.06 0.08 0.08 0.07 0.07 0.07 0.06 0.06 0.05 0.04 0.03 0.03 0.04 0.04 0.05 0.04 0.03 0.03 0.02 0.02 0.03 0.03 0.03 0.02
0.02 0.02 0.02 0.02 0.02 0.02 0.01 0.02 0.02 0.02 0.02 0.03 0.03 0.02 0.03 0.03 0.02 0.03 0.04 0.04 0.05 0.05 0.06 0.06 0.08 0.08 0.05 0.04 0.03 0.04 0.04 0.03 0.03 0.03 0.04 0.03 0.03 0.03 0.03 0.03 0.03 0.03 0.03
0.02 0.02 0.03 0.02 0.03 0.03 0.03 0.02 0.02 0.02 0.03 0.04 0.05 0.05 0.05 0.04 0.03 0.03 0.03 0.04 0.04 0.05 0.05 0.05 0.06 0.06 0.06 0.04 0.03 0.03 0.03 0.03 0.03 0.03 0.02 0.01 0.02 0.03 0.03 0.02 0.02 0.03 0.03
0.03 0.03 0.04 0.05 0.05 0.04 0.03 0.02 0.02 0.03 0.04 0.05 0.06 0.06 0.06 0.05 0.04 0.04 0.02 0.03 0.04 0.04 0.04 0.05 0.05 0.06 0.07 0.05 0.04 0.03 0.02 0.01 0.01 0.01 0.01 0.01 0.01 0.01 0.02 0.03 0.03 0.03 0.04
0.05 0.06 0.06 0.06 0.05 0.03 0.03 0.02 0.01 0.02 0.03 0.04 0.05 0.05 0.05 0.05 0.06 0.06 0.04 0.03 0.04 0.04 0.03 0.03 0.06 0.06 0.07 0.06 0.04 0.03 0.02 0.01 0.01 0.01 0.01 0.01 0.01 0.01 0.01 0.01 0.01 0.02 0.03
0.06 0.05 0.05 0.04 0.02 0.02 0.02 0.01 0.01 0.01 0.02 0.03 0.04 0.04 0.05 0.05 0.05 0.04 0.05 0.06 0.05 0.04 0.03 0.02 0.04 0.05 0.06 0.06 0.04 0.03 0.02 0.02 0.01 0.01 0.01 0.01 0.00 0.01 0.01 0.01 0.01 0.01 0.02
0.05 0.06 0.05 0.03 0.02 0.02 0.02 0.01 0.01 0.01 0.00 0.02 0.04 0.04 0.04 0.05 0.06 0.05 0.04 0.04 0.03 0.03 0.03 0.03 0.04 0.05 0.05 0.05 0.04 0.02 0.02 0.02 0.02 0.01 0.01 0.01 0.01 0.01 0.01 0.01 0.01 0.01 0.02
0.05 0.06 0.05 0.04 0.03 0.02 0.02 0.01 0.01 0.01 0.01 0.01 0.02 0.03 0.05 0.05 0.06 0.06 0.06 0.04 0.02 0.03 0.03 0.03 0.03 0.04 0.04 0.04 0.03 0.02 0.01 0.02 0.02 0.01 0.01 0.01 0.01 0.01 0.01 0.02 0.02 0.02 0.03
0.05 0.06 0.04 0.04 0.03 0.02 0.02 0.01 0.01 0.00 0.01 0.01 0.01 0.02 0.04 0.05 0.06 0.07 0.07 0.05 0.04 0.03 0.04 0.04 0.03 0.04 0.04 0.04 0.03 0.02 0.02 0.02 0.03 0.02 0.01 0.01 0.01 0.01 0.01 0.02 0.02 0.02 0.02
0.05 0.05 0.05 0.04 0.03 0.02 0.01 0.01 0.01 0.01 0.01 0.01 0.01 0.01 0.03 0.05 0.06 0.06 0.07 0.08 0.07 0.05 0.05 0.07 0.05 0.05 0.05 0.04 0.04 0.03 0.02 0.02 0.01 0.02 0.02 0.01 0.01 0.01 0.01 0.02 0.02 0.03 0.03
0.06 0.05 0.04 0.03 0.03 0.02 0.01 0.01 0.01 0.01 0.01 0.01 0.01 0.01 0.02 0.04 0.04 0.03 0.03 0.04 0.05 0.06 0.07 0.08 0.09 0.08 0.07 0.06 0.05 0.04 0.03 0.03 0.02 0.02 0.03 0.04 0.03 0.03 0.03 0.03 0.04 0.04 0.04
0.08 0.07 0.05 0.04 0.03 0.03 0.02 0.01 0.01 0.01 0.01 0.01 0.01 0.02 0.02 0.02 0.02 0.02 0.02 0.03 0.03 0.03 0.05 0.07 0.09 0.10 0.09 0.09 0.08 0.07 0.05 0.04 0.03 0.02 0.02 0.03 0.04 0.03 0.04 0.05 0.06 0.07 0.06
0.08 0.08 0.08 0.06 0.04 0.04 0.03 0.02 0.01 0.02 0.02 0.01 0.02 0.02 0.02 0.02 0.02 0.02 0.03 0.03 0.03 0.03 0.03 0.04 0.05 0.06 0.08 0.10 0.10 0.08 0.06 0.05 0.04 0.03 0.02 0.02 0.02 0.02 0.02 0.02 0.03 0.04 0.06
0.09 0.11 0.09 0.08 0.06 0.04 0.04 0.02 0.02 0.02 0.03 0.03 0.03 0.03 0.03 0.03 0.03 0.03 0.03 0.03 0.03 0.03 0.03 0.03 0.04 0.04 0.04 0.05 0.06 0.05 0.04 0.03 0.02 0.02 0.02 0.01 0.02 0.02 0.01 0.01 0.02 0.02 0.03
0.09 0.11 0.11 0.11 0.10 0.08 0.06 0.04 0.02 0.03 0.03 0.03 0.03 0.03 0.03 0.04 0.04 0.04 0.03 0.03 0.03 0.03 0.03 0.03 0.03 0.03 0.04 0.04 0.04 0.03 0.02 0.02 0.01 0.01 0.01 0.01 0.01 0.01 0.01 0.02 0.02 0.02 0.02
MSLP
1001.27 1002.21 1003.10 1003.86 1004.46 1004.90 1005.21 1005.44 1005.64 1005.84 1006.08 1006.36 1006.66 1006.96 1007.21 1007.40 1007.49 1007.51 1007.46 1007.38 1007.31 1007.29 1007.34 1007.47 1007.68 1007.95 1008.25 1008.55 1008.84 1009.09 1009.32 1009.52 1009.71 1009.88 1010.05 1010.21 1010.34 1010.44 1010.50 1010.51 1010.47 1010.40 1010.31
1001.35 1002.33 1003.24 1004.02 1004.65 1005.13 1005.49 1005.76 1006.01 1006.26 1006.53 1006.83 1007.13 1007.40 1007.61 1007.74 1007.76 1007.68 1007.54 1007.36 1007.20 1007.08 1007.05 1007.11 1007.26 1007.49 1007.76 1008.06 1008.35 1008.64 1008.90 1009.15 1009.38 1009.61 1009.83 1010.03 1010.20 1010.34 1010.43 1010.47 1010.46 1010.41 1010.34
1001.69 1002.71 1003.64 1004.45 1005.12 1005.63 1006.03 1006.36 1006.65 1006.93 1007.23 1007.53 1007.81 1008.05 1008.20 1008.24 1008.16 1007.98 1007.73 1007.45 1007.19 1006.99 1006.88 1006.87 1006.97 1007.15 1007.40 1007.68 1007.97 1008.26 1008.55 1008.82 1009.08 1009.33 1009.58 1009.81 1010.02 1010.19 1010.32 1010.39 1010.40 1010.38 1010.33
1002.29 1003.33 1004.29 1005.12 1005.81 1006.36 1006.80 1007.16 1007.49 1007.80 1008.11 1008.40 1008.64 1008.82 1008.88 1008.83 1008.65 1008.37 1008.01 1007.63 1007.28 1007.00 1006.82 1006.76 1006.81 1006.96 1007.18 1007.45 1007.73 1008.01 1008.29 1008.55 1008.82 1009.08 1009.33 1009.58 1009.81 1010.00 1010.15 1010.25 1010.30 1010.30 1010.27
1003.12 1004.16 1005.12 1005.97 1006.68 1007.25 1007.72 1008.11 1008.46 1008.78 1009.07 1009.33 1009.52 1009.62 1009.60 1009.45 1009.17 1008.78 1008.33 1007.87 1007.45 1007.12 1006.89 1006.80 1006.82 1006.95 1007.14 1007.38 1007.64 1007.90 1008.15 1008.39 1008.62 1008.86 1009.10 1009.34 1009.57 1009.77 1009.95 1010.07 1010.15 1010.17 1010.16
1004.13 1005.16 1006.12 1006.96 1007.66 1008.24 1008.72 1009.12 1009.47 1009.78 1010.04 1010.25 1010.38 1010.39 1010.28 1010.03 1009.66 1009.20 1008.68 1008.16 1007.70 1007.34 1007.10 1006.98 1007.00 1007.11 1007.28 1007.50 1007.72 1007.94 1008.14 1008.33 1008.51 1008.70 1008.90 1009.11 1009.32 1009.53 1009.70 1009.84 1009.93 1009.98 1009.98
1005.29 1006.29 1007.22 1008.03 1008.72 1009.29 1009.75 1010.14 1010.46 1010.74 1010.95 1011.10 1011.15 1011.08 1010.89 1010.56 1010.12 1009.60 1009.05 1008.51 1008.04 1007.68 1007.44 1007.34 1007.35 1007.45 1007.61 1007.80 1007.98 1008.14 1008.28 1008.40 1008.52 1008.64 1008.78 1008.94 1009.11 1009.29 1009.45 1009.58 1009.68 1009.73 1009.73
1006.56 1007.51 1008.39 1009.16 1009.81 1010.34 1010.78 1011.13 1011.41 1011.63 1011.79 1011.86 1011.84 1011.70 1011.44 1011.06 1010.58 1010.04 1009.48 1008.96 1008.51 1008.17 1007.96 1007.88 1007.90 1007.99 1008.13 1008.28 1008.42 1008.52 1008.59 1008.63 1008.67 1008.71 1008.77 1008.86 1008.98 1009.11 1009.23 1009.34 1009.41 1009.45 1009.44
1007.89 1008.78 1009.60 1010.32 1010.91 1011.40 1011.78 1012.08 1012.31 1012.47 1012.56 1012.57 1012.48 1012.28 1011.98 1011.57 1011.09 1010.56 1010.03 1009.55 1009.14 1008.85 1008.67 1008.61 1008.64 1008.73 1008.84 1008.95 1009.03 1009.07 1009.06 1009.03 1008.98 1008.94 1008.92 1008.93 1008.97 1009.04 1009.11 1009.16 1009.20 1009.19 1009.15
1009.24 1010.07 1010.82 1011.47 1012.01 1012.44 1012.77 1013.01 1013.18 1013.28 1013.31 1013.26 1013.12 1012.89 1012.57 1012.16 1011.70 1011.21 1010.74 1010.31 1009.96 1009.72 1009.58 1009.54 1009.56 1009.64 1009.72 1009.78 1009.80 1009.77 1009.70 1009.59 1009.47 1009.35 1009.25 1009.18 1009.14 1009.13 1009.12 1009.11 1009.08 1009.02 1008.93
1010.56 1011.33 1012.01 1012.60 1013.08 1013.45 1013.73 1013.92 1014.04 1014.09 1014.07 1013.98 1013.81 1013.57 1013.25 1012.87 1012.46 1012.03 1011.62 1011.26 1010.97 1010.77 1010.66 1010.62 1010.63 1010.68 1010.71 1010.72 1010.69 1010.60 1010.47 1010.31 1010.12 1009.94 1009.77 1009.63 1009.51 1009.42 1009.33 1009.24 1009.13 1008.99 1008.83
1011.82 1012.52 1013.14 1013.66 1014.09 1014.41 1014.64 1014.79 1014.87 1014.88 1014.83 1014.72 1014.55 1014.32 1014.03 1013.70 1013.35 1012.99 1012.65 1012.35 1012.11 1011.94 1011.84 1011.80 1011.78 1011.79 1011.78 1011.74 1011.65 1011.52 1011.34 1011.14 1010.91 1010.69 1010.47 1010.27 1010.08 1009.91 1009.74 1009.56 1009.36 1009.14 1008.90
1012.96 1013.59 1014.15 1014.62 1015.00 1015.28 1015.48 1015.60 1015.65 1015.65 1015.59 1015.48 1015.33 1015.12 1014.88 1014.61 1014.32 1014.03 1013.76 1013.51 1013.32 1013.16 1013.06 1012.99 1012.94 1012.89 1012.83 1012.75 1012.62 1012.46 1012.26 1012.04 1011.80 1011.55 1011.30 1011.06 1010.82 1010.58 1010.34 1010.07 1009.79 1009.48 1009.16
1013.95 1014.52 1015.01 1015.44 1015.77 1016.03 1016.21 1016.32 1016.36 1016.36 1016.31 1016.22 1016.09 1015.93 1015.74 1015.53 1015.31 1015.08 1014.86 1014.66 1014.48 1014.34 1014.21 1014.11 1014.02 1013.92 1013.82 1013.69 1013.55 1013.37 1013.17 1012.95 1012.72 1012.47 1012.21 1011.95 1011.67 1011.38 1011.06 1010.72 1010.36 1009.98 1009.58
1014.77 1015.27 1015.71 1016.09 1016.40 1016.64 1016.81 1016.92 1016.97 1016.98 1016.95 1016.89 1016.80 1016.68 1016.55 1016.39 1016.23 1016.05 1015.88 1015.71 1015.54 1015.38 1015.24 1015.10 1014.97 1014.83 1014.69 1014.54 1014.39 1014.21 1014.03 1013.83 1013.61 1013.38 1013.13 1012.85 1012.55 1012.21 1011.84 1011.44 1011.01 1010.56 1010.10
1015.42 1015.85 1016.24 1016.59 1016.88 1017.11 1017.28 1017.40 1017.48 1017.51 1017.51 1017.48 1017.42 1017.35 1017.26 1017.15 1017.03 1016.89 1016.75 1016.59 1016.43 1016.27 1016.10 1015.93 1015.76 1015.60 1015.44 1015.28 1015.13 1014.97 1014.81 1014.64 1014.45 1014.23 1013.99 1013.70 1013.37 1013.00 1012.58 1012.13 1011.64 1011.13 1010.62
1015.91 1016.29 1016.65 1016.97 1017.26 1017.49 1017.68 1017.81 1017.91 1017.96 1017.99 1017.99 1017.96 1017.92 1017.86 1017.79 1017.70 1017.59 1017.46 1017.32 1017.16 1016.99 1016.80 1016.62 1016.43 1016.26 1016.09 1015.93 1015.79 1015.65 1015.51 1015.36 1015.19 1014.99 1014.74 1014.44 1014.09 1013.67 1013.21 1012.70 1012.17 1011.61 1011.06
1016.31 1016.66 1016.99 1017.31 1017.59 1017.84 1018.04 1018.20 1018.32 1018.39 1018.44 1018.46 1018.45 1018.43 1018.39 1018.34 1018.26 1018.17 1018.06 1017.92 1017.76 1017.59 1017.40 1017.21 1017.02 1016.84 1016.68 1016.53 1016.40 1016.27 1016.15 1016.01 1015.84 1015.63 1015.37 1015.04 1014.65 1014.19 1013.68 1013.12 1012.53 1011.94 1011.35
1016.67 1017.00 1017.33 1017.66 1017.96 1018.22 1018.44 1018.62 1018.75 1018.84 1018.90 1018.93 1018.93 1018.92 1018.88 1018.83 1018.76 1018.68 1018.57 1018.44 1018.28 1018.12 1017.93 1017.75 1017.57 1017.40 1017.24 1017.10 1016.98 1016.86 1016.73 1016.58 1016.40 1016.16 1015.86 1015.49 1015.05 1014.53 1013.96 1013.35 1012.72 1012.08 1011.45
1017.06 1017.40 1017.75 1018.08 1018.40 1018.68 1018.92 1019.12 1019.26 1019.35 1019.41 1019.44 1019.43 1019.41 1019.37 1019.31 1019.24 1019.16 1019.05 1018.92 1018.78 1018.62 1018.45 1018.28 1018.11 1017.95 1017.81 1017.67 1017.54 1017.41 1017.27 1017.09 1016.87 1016.59 1016.24 1015.80 1015.30 1014.72 1014.09 1013.43 1012.74 1012.06 1011.39
1017.54 1017.90 1018.27 1018.62 1018.96 1019.25 1019.50 1019.69 1019.83 1019.92 1019.97 1019.98 1019.96 1019.92 1019.87 1019.80 1019.72 1019.63 1019.53 1019.41 1019.27 1019.13 1018.97 1018.82 1018.66 1018.51 1018.37 1018.23 1018.08 1017.93 1017.74 1017.52 1017.25 1016.91 1016.49 1016.00 1015.43 1014.80 1014.11 1013.39 1012.66 1011.93 1011.22
1018.14 1018.52 1018.90 1019.27 1019.61 1019.90 1020.14 1020.33 1020.45 1020.52 1020.55 1020.54 1020.50 1020.44 1020.37 1020.29 1020.20 1020.10 1020.00 1019.89 1019.76 1019.63 1019.49 1019.34 1019.19 1019.04 1018.89 1018.73 1018.56 1018.36 1018.14 1017.86 1017.53 1017.13 1016.65 1016.10 1015.47 1014.79 1014.06 1013.30 1012.52 1011.75 1011.00
1018.86 1019.24 1019.62 1019.98 1020.31 1020.58 1020.80 1020.95 1021.05 1021.10 1021.10 1021.06 1021.00 1020.92 1020.84 1020.75 1020.65 1020.55 1020.45 1020.34 1020.22 1020.10 1019.96 1019.82 1019.67 1019.51 1019.34 1019.15 1018.94 1018.70 1018.42 1018.08 1017.69 1017.24 1016.71 1016.12 1015.46 1014.75 1013.99 1013.21 1012.41 1011.60 1010.80
1019.65 1020.01 1020.36 1020.69 1020.97 1021.21 1021.38 1021.50 1021.56 1021.58 1021.55 1021.49 1021.42 1021.33 1021.24 1021.14 1021.04 1020.95 1020.85 1020.74 1020.63 1020.50 1020.37 1020.22 1020.06 1019.88 1019.67 1019.45 1019.19 1018.90 1018.57 1018.19 1017.75 1017.25 1016.70 1016.08 1015.41 1014.69 1013.94 1013.15 1012.34 1011.51 1010.68
1020.42 1020.74 1021.04 1021.31 1021.53 1021.70 1021.83 1021.90 1021.92 1021.91 1021.87 1021.80 1021.72 1021.63 1021.54 1021.46 1021.37 1021.28 1021.19 1021.08 1020.97 1020.84 1020.70 1020.54 1020.35 1020.14 1019.90 1019.63 1019.33 1018.99 1018.60 1018.18 1017.70 1017.18 1016.61 1016.00 1015.34 1014.64 1013.90 1013.13 1012.33 1011.50 1010.65
1021.09 1021.34 1021.56 1021.76 1021.91 1022.02 1022.08 1022.11 1022.11 1022.08 1022.03 1021.96 1021.90 1021.83 1021.76 1021.69 1021.62 1021.55 1021.47 1021.37 1021.26 1021.12 1020.97 1020.78 1020.56 1020.32 1020.04 1019.72 1019.37 1018.98 1018.55 1018.08 1017.58 1017.04 1016.48 1015.87 1015.24 1014.57 1013.87 1013.14 1012.36 1011.55 1010.68
Thickness
5729 5727 5726 5725 5724 5724 5723 5723 5722 5721 5719 5719 5718 5717 5716 5715 5714 5712 5711 5710 5708 5707 5706 5705 5704 5704 5702 5702 5702 5701 5699 5697 5693 5695 5697 5698 5698 5698 5697 5697 5695 5694 5693
5724 5722 5719 5718 5717 5716 5716 5716 5716 5715 5714 5713 5712 5711 5710 5709 5708 5707 5705 5704 5703 5702 5702 5701 5700 5700 5698 5697 5697 5696 5695 5695 5692 5689 5691 5692 5693 5693 5693 5692 5692 5691 5690
5718 5715 5712 5710 5709 5708 5708 5708 5708 5707 5707 5706 5705 5704 5703 5702 5701 5701 5700 5699 5698 5698 5698 5697 5696 5694 5693 5693 5692 5692 5692 5692 5690 5687 5686 5687 5688 5688 5687 5687 5688 5687 5687
5711 5708 5705 5703 5702 5702 5702 5701 5701 5700 5700 5699 5698 5697 5696 5695 5694 5694 5693 5693 5692 5692 5693 5692 5692 5691 5690 5689 5689 5688 5687 5686 5684 5683 5681 5681 5682 5683 5682 5680 5680 5681 5682
5703 5700 5698 5697 5696 5695 5695 5694 5694 5693 5693 5692 5691 5690 5689 5688 5687 5686 5686 5686 5685 5685 5686 5687 5688 5688 5688 5686 5686 5683 5682 5680 5678 5677 5675 5675 5675 5675 5675 5676 5675 5676 5677
5694 5692 5691 5690 5688 5687 5687 5686 5686 5685 5684 5683 5682 5681 5680 5680 5679 5678 5678 5678 5677 5677 5678 5679 5681 5682 5682 5682 5681 5681 5680 5677 5674 5672 5671 5670 5671 5672 5672 5672 5670 5669 5669
5688 5685 5683 5682 5680 5680 5680 5679 5677 5676 5676 5674 5673 5673 5671 5671 5671 5671 5671 5670 5669 5670 5671 5671 5674 5675 5675 5675 5674 5675 5674 5673 5673 5671 5668 5668 5668 5669 5668 5667 5666 5666 5666
5679 5677 5676 5674 5672 5671 5671 5670 5669 5668 5667 5666 5665 5664 5663 5663 5663 5663 5663 5662 5662 5662 5663 5664 5664 5665 5667 5667 5666 5666 5666 5667 5667 5667 5666 5667 5667 5667 5666 5665 5663 5663 5664
5671 5669 5669 5667 5665 5664 5662 5661 5661 5659 5659 5658 5658 5657 5656 5655 5655 5655 5654 5653 5653 5654 5655 5657 5657 5658 5659 5659 5659 5658 5658 5659 5662 5662 5662 5662 5662 5662 5661 5659 5657 5656 5655
5664 5663 5662 5660 5658 5656 5654 5653 5653 5652 5651 5651 5650 5650 5649 5648 5648 5647 5646 5645 5644 5645 5646 5648 5648 5650 5651 5651 5651 5651 5650 5651 5652 5654 5654 5655 5655 5656 5656 5655 5654 5651 5650
5657 5655 5654 5653 5651 5649 5647 5646 5645 5644 5643 5642 5642 5641 5641 5640 5640 5639 5638 5636 5636 5636 5637 5638 5640 5641 5643 5644 5645 5645 5644 5644 5644 5645 5646 5647 5648 5649 5649 5650 5651 5650 5648
5649 5647 5646 5645 5644 5643 5639 5638 5637 5636 5634 5633 5632 5631 5632 5632 5632 5631 5630 5629 5629 5629 5629 5630 5632 5633 5635 5636 5637 5638 5638 5638 5637 5637 5638 5639 5640 5641 5643 5644 5646 5646 5648
5640 5638 5637 5636 5635 5634 5631 5630 5628 5627 5625 5624 5623 5622 5622 5623 5623 5623 5622 5622 5622 5622 5622 5623 5624 5625 5626 5627 5629 5630 5630 5629 5630 5630 5631 5633 5634 5636 5637 5638 5639 5641 5642
5631 5629 5628 5626 5625 5624 5623 5622 5620 5618 5617 5616 5615 5614 5614 5615 5615 5615 5614 5614 5614 5614 5614 5616 5617 5618 5618 5619 5620 5621 5622 5622 5623 5624 5625 5627 5628 5629 5629 5630 5631 5632 5632
5622 5620 5618 5617 5616 5615 5614 5613 5613 5612 5611 5610 5609 5608 5608 5608 5609 5608 5606 5606 5606 5606 5606 5606 5607 5608 5609 5610 5612 5613 5614 5615 5616 5617 5618 5619 5620 5620 5622 5623 5623 5623 5623
5612 5611 5609 5608 5607 5606 5605 5605 5606 5606 5606 5605 5604 5603 5603 5603 5603 5601 5600 5599 5599 5599 5598 5597 5597 5599 5600 5602 5603 5604 5606 5607 5609 5609 5610 5610 5611 5612 5613 5614 5615 5615 5616
5604 5603 5602 5600 5599 5598 5597 5597 5597 5598 5598 5597 5597 5596 5596 5596 5595 5594 5593 5592 5591 5591 5590 5590 5591 5591 5593 5594 5595 5597 5598 5600 5601 5602 5602 5603 5604 5604 5605 5606 5606 5607 5608
5598 5596 5595 5593 5592 5591 5591 5591 5590 5589 5588 5588 5589 5589 5589 5589 5588 5587 5586 5584 5583 5583 5583 5584 5584 5585 5586 5587 5589 5590 5591 5592 5592 5593 5594 5595 5595 5596 5596 5597 5598 5599 5600
5590 5589 5588 5587 5586 5585 5584 5584 5584 5583 5582 5581 5581 5582 5582 5581 5580 5579 5578 5577 5576 5576 5577 5577 5578 5579 5580 5581 5582 5582 5583 5583 5583 5583 5584 5585 5587 5587 5587 5589 5590 5591 5592
5584 5584 5582 5581 5579 5578 5577 5577 5576 5576 5575 5574 5574 5574 5574 5572 5571 5571 5571 5570 5570 5569 5570 5571 5572 5572 5573 5574 5574 5574 5574 5575 5575 5575 5576 5577 5578 5579 5579 5580 5581 5582 5583
5578 5577 5576 5574 5572 5571 5570 5570 5569 5569 5569 5569 5568 5569 5568 5567 5566 5566 5565 5565 5564 5564 5564 5565 5565 5565 5565 5565 5566 5566 5566 5566 5567 5567 5568 5568 5569 5570 5571 5572 5573 5574 5575
5571 5570 5568 5566 5565 5564 5564 5563 5563 5563 5563 5563 5563 5562 5561 5560 5560 5560 5559 5559 5558 5558 5558 5558 5558 5558 5558 5557 5557 5557 5557 5557 5558 5559 5559 5560 5561 5562 5563 5563 5564 5565 5566
5564 5563 5562 5560 5559 5559 5558 5557 5557 5557 5557 5557 5557 5555 5554 5554 5554 5554 5554 5553 5553 5552 5551 5551 5551 5551 5551 5550 5550 5549 5549 5549 5550 5551 5550 5551 5551 5552 5553 5554 5555 5556 5557
5557 5556 5555 5554 5553 5551 5551 5550 5550 5551 5551 5551 5551 5550 5549 5548 5548 5548 5548 5547 5547 5546 5545 5544 5544 5544 5543 5542 5542 5541 5540 5540 5541 5542 5542 5542 5543 5543 5544 5544 5546 5547 5548
5550 5549 5548 5547 5547 5546 5544 5544 5545 5545 5546 5545 5545 5544 5543 5542 5542 5541 5540 5540 5540 5539 5538 5537 5537 5536 5535 5534 5533 5532 5531 5531 5531 5532 5532 5533 5533 5534 5535 5536 5537 5538 5539
5543 5542 5541 5541 5540 5539 5539 5539 5540 5540 5540 5539 5539 5538 5537 5536 5535 5534 5533 5532 5531 5531 5530 5529 5529 5528 5526 5525 5524 5524 5523 5523 5523 5523 5523 5523 5523 5524 5525 5526 5527 5528 5529